Time,TemperatureF,DewpointF,PressureIn,WindDirection,WindDirectionDegrees,WindSpeedMPH,WindSpeedGustMPH,Humidity,HourlyPrecipIn,Conditions,Clouds,dailyrainin,SoftwareType,DateUTC
2015-05-26 00:06:00,69.4,62.0,30.20,ESE,115,1.0,2.0,76,0.00,,,0.00,weatherlink.com 1.10,2015-05-26 04:06:00,
2015-05-26 00:21:00,69.2,61.0,30.20,WSW,249,0.0,3.0,76,0.00,,,0.00,weatherlink.com 1.10,2015-05-26 04:21:00,
2015-05-26 00:36:00,69.1,61.0,30.20,West,270,0.0,1.0,76,0.00,,,0.00,weatherlink.com 1.10,2015-05-26 04:36:00,
2015-05-26 00:51:00,68.8,61.0,30.20,WSW,252,0.0,2.0,77,0.00,,,0.00,weatherlink.com 1.10,2015-05-26 04:51:00,
2015-05-26 01:06:00,68.5,61.0,30.19,WSW,250,0.0,1.0,78,0.00,,,0.00,weatherlink.com 1.10,2015-05-26 05:06:00,
2015-05-26 01:21:00,68.5,61.0,30.19,East,81,0.0,2.0,78,0.00,,,0.00,weatherlink.com 1.10,2015-05-26 05:21:00,
2015-05-26 01:36:00,68.1,62.0,30.18,ENE,75,0.0,1.0,81,0.00,,,0.00,weatherlink.com 1.10,2015-05-26 05:36:00,
2015-05-26 01:51:00,66.5,62.0,30.18,West,271,2.0,3.0,86,0.03,,,0.03,weatherlink.com 1.10,2015-05-26 05:51:00,
2015-05-26 02:06:00,65.8,62.0,30.17,NNE,18,0.0,5.0,87,0.03,,,0.03,weatherlink.com 1.10,2015-05-26 06:06:00,
2015-05-26 02:21:00,65.3,62.0,30.18,WSW,240,0.0,3.0,88,0.03,,,0.03,weatherlink.com 1.10,2015-05-26 06:21:00,
2015-05-26 02:36:00,65.1,62.0,30.18,WSW,245,0.0,2.0,90,0.03,,,0.03,weatherlink.com 1.10,2015-05-26 06:36:00,
2015-05-26 02:51:00,64.7,62.0,30.18,SSW,201,0.0,1.0,91,0.00,,,0.03,weatherlink.com 1.10,2015-05-26 06:51:00,
2015-05-26 03:06:00,64.4,62.0,30.17,SSW,201,0.0,1.0,91,0.00,,,0.03,weatherlink.com 1.10,2015-05-26 07:06:00,
2015-05-26 03:21:00,64.3,62.0,30.17,SSW,201,1.0,1.0,92,0.00,,,0.03,weatherlink.com 1.10,2015-05-26 07:21:00,
2015-05-26 03:36:00,64.3,62.0,30.17,WNW,302,0.0,1.0,93,0.00,,,0.03,weatherlink.com 1.10,2015-05-26 07:36:00,
2015-05-26 03:52:00,64.3,63.0,30.18,WNW,302,0.0,1.0,94,0.13,,,0.16,weatherlink.com 1.10,2015-05-26 07:52:00,
2015-05-26 04:07:00,64.2,63.0,30.18,NW,318,0.0,2.0,94,0.37,,,0.40,weatherlink.com 1.10,2015-05-26 08:07:00,
2015-05-26 04:22:00,64.2,63.0,30.18,NNW,333,0.0,0.0,95,0.62,,,0.65,weatherlink.com 1.10,2015-05-26 08:22:00,
2015-05-26 04:37:00,63.9,63.0,30.18,NNW,333,0.0,1.0,95,0.63,,,0.66,weatherlink.com 1.10,2015-05-26 08:37:00,
2015-05-26 04:52:00,63.8,62.0,30.18,NNW,333,0.0,0.0,95,0.48,,,0.66,weatherlink.com 1.10,2015-05-26 08:52:00,